Regional Weather Roundup
Issued by NWS

Home | Current Version | Previous Version | Text Only | Print | Product List | Glossary Off
Versions: 1 2 3 4 5 6 7 8 9 10 11 12 13 14 15 16 17 18 19 20 21 22 23 24 25 26 27 28 29 30 31 32 33 34 35 36 37 38 39 40 41 42 43 44 45 46 47 48 49 50

000
ASUS45 KBOU 241307
RWRCO

WEATHER ROUNDUP FOR COLORADO
NATIONAL WEATHER SERVICE DENVER/BOULDER CO
700 AM MDT FRI MAR 24 2017

NOTE: "FAIR" INDICATES FEW OR NO CLOUDS BELOW 12000 FEET WITH NO
SIGNIFICANT WEATHER AND/OR OBSTRUCTIONS TO VISIBILITY.

COZ001>005-013-030-031-241400-
...NORTHWEST COLORADO...

CITY           SKY/WX    TMP DP  RH WIND       PRES   REMARKS
CRAIG          CLOUDY    37  29  72 N15       30.09R
HAYDEN         MOCLDY    34  25  69 W5        30.09R WCI  30
MEEKER         CLOUDY    37  29  72 N12       30.09R
MOUNT WERNER   NOT AVBL
STEAMBOAT SPGS CLOUDY    34  28  76 E5        30.08R WCI  30
WALDEN         NOT AVBL
$$

COZ006>008-011-241400-
...WEST CENTRAL VALLEYS...

CITY           SKY/WX    TMP DP  RH WIND       PRES   REMARKS
GRAND JUNCTION MOCLDY    40  33  76 NW3       30.08R
MONTROSE       MOCLDY    40  32  73 NW23G30   30.06R
EAGLE          MOCLDY    39  28  65 VRB6      30.06R
RIFLE          CLOUDY    42  30  62 NW10      30.06R
DELTA          CLOUDY    46  31  56 W22       30.03S
NUCLA          MOCLDY    37  32  81 CALM      30.11R
$$

COZ017>023-064>068-241400-
...SOUTHWEST COLORADO...

CITY           SKY/WX    TMP DP  RH WIND       PRES   REMARKS
DURANGO        FAIR      37  28  70 W20       29.86R
CORTEZ         MOCLDY    39  31  72 NW12G20   30.03R
PAGOSA SPRINGS CLOUDY    32  32 100 CALM      29.89R
TELLURIDE      NOT AVBL
WOLF CREEK PAS MOCLDY    21  19  93 N17G26    29.99R FOG     WCI   7
$$

COZ009-010-012-014-032>034-037-058>063-241400-
...CENTRAL COLORADO...

CITY           SKY/WX    TMP DP  RH WIND       PRES   REMARKS
ASPEN          CLOUDY    34  31  88 N7        30.01R FOG     WCI  28
BUENA VISTA    FAIR      39  22  49 N17G29    29.92R
COPPER MTN     CLOUDY    23  18  80 MISG      30.02R
BERTHOUD PASS  CLOUDY    14   3  62 N6        30.03R WCI   5
COTTONWOOD PAS FAIR      36  21  55 CALM      29.96R
GUNNISON       FAIR      36  28  73 CALM      29.97R
KREMMLING      CLOUDY    37  30  75 N8G17     30.06R
LEADVILLE      CLOUDY    27  19  72 N16G23    29.98R WCI  15
MONARCH PASS   CLOUDY    23  21  93 W12G20    30.08R FOG     WCI  12
SALIDA         CLOUDY    38  33  82 W3        29.98R
SUNLIGHT       HVY SNOW N/A N/A N/A NW5       30.11R VSB<1/4
WILKERSON PASS   N/A     21  19  93 NE30G41   29.92S WCI   3
$$

COZ069>075-241400-
...SAN LUIS VALLEY/SANGRE DE CRISTO MOUNTAINS...

CITY           SKY/WX    TMP DP  RH WIND       PRES   REMARKS
ALAMOSA        CLOUDY    37  30  75 NW28G37   29.83R
LA VETA PASS   NOT AVBL
SAGUACHE       NOT AVBL
$$

COZ035-036-038>040-241400-
...NORTHERN COLORADO FRONT RANGE...

CITY           SKY/WX    TMP DP  RH WIND       PRES   REMARKS
DENVER INTL AP LGT SNOW  35  34  96 N28G43    29.97R FOG     WCI  22
DMNS CITY PARK   N/A     39  33  78 N17G32    30.01R
AURORA         LGT SNOW  34  34 100 N32G40    29.98R FOG     WCI  20
FRONT RANGE AP LGT SNOW  36  36 100 NW32G39   29.96R
ERIE MUNI ARPT CLOUDY    41  33  74 N21G26    30.03R
BOULDER MUN AP CLOUDY    41  34  75 N16G22    30.03R
CENTENNIAL     LGT SNOW  33  32  96 N29       29.98R VSB 1   WCI  19
BROOMFIELD     CLOUDY    39  36  87 MISG      30.02R
FORT COLLINS   CLOUDY    41  32  70 N18G30    30.05R
LONGMONT       CLOUDY    44  33  66 N17       30.06R
$$

COZ041-046-047-076>085-087-088-241400-
...PIKES PEAK/PALMER DIVIDE AND SOUTHERN FOOTHILLS...

CITY           SKY/WX    TMP DP  RH WIND       PRES   REMARKS
COLO. SPRINGS  LGT SNOW  34  33  96 N32G49    29.84R VSB 3/4 WCI  20
A. F. ACADEMY  LGT SNOW  32  32 100 N36G48    29.86R VSB 1   WCI  16
SCHRIEVER AFB  HVY SNOW  32  32  99 NW35G54   29.81  VSB 1/4 WCI  17
ELLICOTT       HVY SNOW   1  32 100 N48G60    29.75  WCI -29
FALCON         CLOUDY    32  31  97 N26G46    29.85R WCI  18
FORT CARSON    RAIN      35  33  92 N45G59    29.79R WCI  19
LIMON            N/A    N/A N/A N/A MISG      29.79R
MONUMENT HILL  CLOUDY    30  30 100 N29G40    29.93R WCI  15
TRINIDAD       LGT SNOW  35  33  92 N37G59    29.71R FOG     WCI  21
$$

COZ042>045-048>051-090-091-241400-
...NORTHEAST COLORADO...

CITY           SKY/WX    TMP DP  RH WIND       PRES   REMARKS
GREELEY ARPT   CLOUDY    40  34  79 N23G31    30.02R
AKRON          LGT SNOW  38  36  92 N36G46    29.87R FOG
BURLINGTON     TSTM      44  44 100 N33G47    29.68R FOG
WRAY           NOT AVBL
STERLING       DRIZZLE   41  37  87 N30G45    29.88R
HOLYOKE        LGT RAIN  43  39  87 N32G40    29.87R
FORT MORGAN    DRIZZLE   39  37  91 N31G43    29.91R
$$

COZ086-089-092>099-241400-
...SOUTHEAST COLORADO...

CITY           SKY/WX    TMP DP  RH WIND       PRES   REMARKS
PUEBLO         CLOUDY    40  34  79 N40G55    29.77R
LA JUNTA       LGT RAIN  39  34  82 N39G58    29.67R
LAMAR          FAIR      40  33  76 E13       29.57R
SPRINGFIELD      N/A     36  33  89 N21       29.49R
$$



USA.gov is the U.S. government's official web portal to all federal, state and local government web resources and services.